Simultaneous Nadir Overpasses (SNOs) Predictions

Prediction of SNOs between GOES-15 and FY3D Satellite Orbit:

Table of predicted SNOs for the next 14.0 days since TLE Epoch: 12/11/2021
Index Date Time (GOES-15) GOES-15 Lat,Lon FY3D Lat,Lon Distance(km) Time Diff (sec)
1 12/11/2021 10:15:10 -0.02,-127.88 0.07,-128.28 45.82 80
2 12/12/2021 09:59:27 -0.01,-127.85 -0.92,-123.84 457.63 80
3 12/13/2021 22:19:19 0.03,-127.80 -0.28,-129.27 166.91 80
4 12/14/2021 22:03:35 0.02,-127.77 0.66,-124.81 336.56 80
5 12/16/2021 10:23:16 -0.04,-127.71 0.54,-130.21 285.00 80
6 12/17/2021 10:07:34 -0.02,-127.67 -0.46,-125.76 217.90 80
7 12/18/2021 22:27:24 0.04,-127.61 -0.79,-131.18 407.96 80
8 12/19/2021 22:11:42 0.03,-127.57 0.21,-126.74 94.71 80
9 12/22/2021 10:13:01 -0.03,-127.46 -0.00,-127.68 25.56 80
10 12/23/2021 09:57:17 -0.03,-127.41 -0.94,-123.22 476.58 80
11 12/24/2021 22:17:08 0.04,-127.34 -0.23,-128.66 150.38 80
